Location: Quispamsis
(45.4447°N, 65.9414°W)
Time: 16:26:38
(UTC-03:00)

Daily predictions for brighter satellites

Satellite Brightness Start Highest point End
(mag) Time Altitude Azimuth Time Altitude Azimuth Time Altitude Azimuth
NOSS 3-2 (A) 4.0 21:25:59 10° SW 21:31:55 69° NW 21:38:37 10° NE
Resurs 01 Rocket 2.3 21:34:20 10° S 21:38:39 57° W 21:43:01 10° NNW
NOSS 3-2 (C) 3.7 21:33:17 10° SW 21:39:15 81° NW 21:45:58 10° NE
USA 32 4.3 21:35:14 10° N 21:40:21 51° E 21:45:25 10° SSE
Cosmos 1340 Rocket 3.4 21:38:27 10° SSE 21:42:15 40° E 21:46:06 10° NNE
BREEZE-M DEB (TANK) 3.8 21:42:59 10° W 21:44:29 13° SW 21:45:39 10° SSW
Meteor 1-13 Rocket 4.4 21:42:03 10° S 21:47:55 71° E 21:53:53 10° NNE
SL-08 RB Rocket 4.2 21:46:42 10° SE 21:51:02 47° ENE 21:55:28 10° N
CENTAUR R/B 2.5 21:46:04 10° SSW 21:51:56 63° ESE 21:58:45 10° NE
ERS-1 Rocket 3.6 21:47:54 10° SE 21:52:37 42° ENE 21:57:21 10° N
Cosmos 2360 Rocket 2.2 21:50:55 10° NNW 21:56:35 76° ENE 22:02:08 11° SSE
ERS-2 4.1 21:53:25 10° SSW 21:56:36 27° W 21:59:48 10° NW
Cosmos 2219 Rocket 3.5 21:54:17 10° N 21:59:03 28° NE 22:03:48 10° ESE
Cosmos 1666 4.5 21:58:06 10° NNW 22:01:35 32° W 22:05:02 10° SSW
Cosmos 1025 Rocket 4.4 22:03:24 13° SE 22:06:16 23° E 22:09:45 10° NE
MetOp-A 4.2 22:02:57 10° SSE 22:08:19 87° ENE 22:13:42 10° NNW
ATLAS 3B R/B 4.4 22:02:06 10° WSW 22:08:40 39° NW 22:15:00 10° NNE
Cosmos 1814 Rocket 4.4 22:03:56 10° SSW 22:09:11 71° WNW 22:14:32 10° NNE
Cosmos 1356 3.3 22:07:56 10° S 22:11:24 72° E 22:14:53 10° NNE
Meteor 2-9 Rocket 4.5 22:07:10 10° NNW 22:12:29 66° W 22:17:52 10° S
Aureole 2 Rocket 3.3 22:13:07 10° NW 22:15:49 34° WSW 22:18:19 10° S
Cosmos 2034 Rocket 4.1 22:11:13 10° S 22:17:14 58° E 22:23:16 10° NNE
Cosmos 1125 Rocket 3.7 22:12:31 10° NNW 22:17:44 60° ENE 22:21:51 16° SE
SPOT 1/Viking Rocket 4.1 22:14:33 14° SE 22:18:39 45° ENE 22:23:34 10° N
Cosmos 1464 Rocket 4.0 22:12:59 10° S 22:19:21 82° E 22:25:46 10° N
Cosmos 1455 Rocket 3.5 22:15:14 10° NNW 22:19:33 62° W 22:23:53 10° S
Okean 2 4.0 22:17:22 15° SSE 22:20:28 39° E 22:24:21 10° NNE
H-2A R/B 2.0 22:17:08 11° SSE 22:21:56 87° WSW 22:27:03 10° NNW
BREEZE-M R/B 3.2 22:19:18 10° W 22:22:53 46° NNW 22:25:20 10° ENE
USA 245 3.5 22:23:10 17° SSE 22:26:04 76° ENE 22:30:49 10° N
Landsat 7 4.5 22:23:18 17° SE 22:26:38 41° ENE 22:31:06 10° N
Helios 1A 3.2 22:24:20 18° SE 22:27:16 54° ENE 22:31:21 10° N
SL-16 R/B 4.5 22:26:44 10° N 22:29:27 13° NE 22:32:10 10° ENE
Cosmos 2333 Rocket 3.0 22:24:12 10° NNW 22:29:35 40° NE 22:33:45 16° ESE
COSMOS 2428 2.9 22:26:58 10° NNW 22:32:37 63° ENE 22:36:42 19° SE
Cosmos 1356 Rocket 3.9 22:31:02 18° SSE 22:33:54 45° E 22:38:01 10° NNE
Cosmos 836 Rocket 4.5 22:29:10 10° S 22:34:18 67° ESE 22:39:30 10° NNE
Meteor 1-23 Rocket 4.2 22:32:11 10° S 22:37:45 86° WNW 22:43:21 10° N
ARGOS 4.0 22:37:58 10° S 22:43:09 47° W 22:48:24 10° NNW
DMSP B5D2-2 4.1 22:38:47 10° NNE 22:44:05 70° ESE 22:48:50 13° S
Terra 2.5 22:42:40 21° SE 22:45:26 42° ENE 22:49:55 10° N
Helios 1B rocket 2.8 22:42:08 10° NNE 22:46:08 45° E 22:48:12 24° SSE
Cosmos 540 Rocket 3.7 22:42:26 10° SSW 22:47:36 73° WNW 22:52:47 10° NNE
Cosmos 2297 Rocket 3.8 22:47:15 16° ESE 22:48:11 16° E 22:51:32 10° ENE
SPOT 5 2.7 22:47:09 22° SSE 22:50:02 89° E 22:54:44 10° NNW
Cosmos 2322 Rocket 4.4 22:47:52 10° WNW 22:51:32 18° W 22:55:12 10° SW
Cosmos 2227 Rocket 3.6 22:50:42 18° ESE 22:51:53 20° E 22:55:49 10° NE
Cosmos 2322 4.2 22:48:34 10° NW 22:54:09 54° WSW 22:58:16 18° S
Shenzhou-11 Module 4.5 22:53:46 10° SW 22:54:34 11° SW 22:54:34 11° SW
Lacrosse 5 rocket 2.6 22:51:47 10° WNW 22:55:34 30° SW 22:57:27 20° S
SJ 16-02 2.1 22:51:22 10° NNW 22:55:38 47° WSW 22:58:37 18° S
Cosmos 2237 Rocket 3.2 22:51:12 10° NNW 22:56:30 37° NE 23:00:06 18° ESE
Iridium 40 4.0 22:57:05 55° SSW 22:57:27 72° W 22:59:50 10° N
Abrixas rocket 3.1 22:54:19 10° WNW 22:57:27 47° N 23:00:36 10° ENE
Cosmos 2228 4.2 22:56:18 10° NNE 23:00:06 30° ENE 23:01:40 23° ESE
IGS 5A 3.5 22:59:06 29° SSE 23:01:04 65° ENE 23:05:12 10° N
Tiangong 2 1.6 22:59:58 10° W 23:02:57 40° SSW 23:03:04 40° S
Cosmos 1066 Rocket 4.1 23:03:04 19° S 23:06:56 78° E 23:12:26 10° NNE
BREEZE M DEB (TANK) 4.2 23:01:19 10° WNW 23:07:25 23° WSW 23:09:21 17° SSW
ISS -1.7 23:06:50 10° WNW 23:09:42 26° N 23:12:32 10° ENE
Cosmos 1726 Rocket 3.9 23:07:23 10° N 23:11:43 51° ENE 23:13:22 33° SE
USA 234 3.5 23:05:21 10° NE 23:11:53 73° NNW 23:18:26 10° WSW
Okean 1-7 Rocket 3.6 23:10:56 30° S 23:13:06 66° E 23:17:36 10° NNE
Cosmos 1544 3.0 23:12:13 10° N 23:15:57 86° W 23:17:09 41° S
CZ-4C R/B 3.0 23:11:07 10° NW 23:18:16 71° WSW 23:23:08 26° SSE
Cosmos 1092 Rocket 4.1 23:16:05 10° N 23:22:26 77° W 23:26:28 24° S
Cosmos 192 4.3 23:21:58 30° S 23:24:17 64° ESE 23:29:10 10° NNE
Cosmos 2219 3.1 23:20:18 15° SSW 23:25:07 82° ESE 23:30:54 10° NNE
DELTA 2 R/B (1) 4.1 23:21:20 10° SW 23:26:16 33° SSE 23:26:36 33° SSE
Meteor 1-21 4.5 23:27:16 32° SSE 23:29:30 51° E 23:34:57 10° NNE
Cosmos 2058 Rocket 3.3 23:26:54 10° N 23:31:23 58° ENE 23:32:45 40° SE
NOSS 0 Rocket 3.9 23:25:16 10° NNW 23:31:34 89° ENE 23:34:40 32° SSE
Meteor 1-22 Rocket 4.0 23:28:01 10° NNW 23:33:24 87° W 23:35:46 34° S
CZ-2C R/B 3.0 23:29:46 10° NNE 23:35:17 53° E 23:37:25 35° SSE
Cosmos 1766 3.2 23:32:33 10° N 23:36:33 88° W 23:37:34 50° S
CARTOSAT-1 4.1 23:35:58 31° SSW 23:37:42 51° W 23:41:56 10° NNW
Cosmos 2360 Rocket 4.3 23:36:24 10° WNW 23:39:53 17° W 23:43:22 10° SW
CENTAUR R/B 4.2 23:37:19 10° W 23:43:05 36° NW 23:49:41 10° NNE
Cosmos 2219 Rocket 2.6 23:37:52 10° NW 23:43:18 53° WSW 23:45:43 31° S
Cosmos 489 Rocket 4.5 23:37:42 10° NNW 23:44:07 85° ENE 23:47:04 35° SSE
Cosmos 1733 4.1 23:40:55 10° N 23:44:28 34° ENE 23:44:53 33° E
ASTRO F (AKARI) 4.4 23:41:13 10° N 23:44:30 79° WNW 23:44:58 62° SW
Intercosmos 25 3.2 23:47:30 55° SSE 23:48:14 74° E 23:51:35 10° NNE
Cosmos 2026 Rocket 4.0 23:43:27 10° NNW 23:49:37 74° W 23:52:35 32° S
Cosmos 1538 Rocket 3.9 23:48:36 39° S 23:50:30 69° ESE 23:55:44 10° NNE
ALOS 2 4.2 23:50:35 21° E 23:51:54 24° ENE 23:55:25 10° NNE
CZ-2C R/B 3.4 23:50:58 34° S 23:53:21 65° W 23:59:01 10° NNW
COBE Rocket 4.4 23:49:01 10° NNE 23:53:28 40° E 23:54:12 38° ESE
Cosmos 1606 Rocket 4.3 23:50:20 10° NNW 23:54:36 47° W 23:56:10 32° SW
